This is the latest recevied weather packets stored in our database for station/object OE-11399. If no packets are shown the sender has not sent any weather packets the latest 10 day(s).
| Time | Temp. | Humidity | Pressure | Rain* | Wind** | Luminosity | Snow |
|---|---|---|---|---|---|---|---|
| 1787671525 | 18.33° C | 73% | 850.1 hPa | 0.25 mm | - | 183 W/m² | - |
| 1787670698 | 18.33° C | 73% | 850 hPa | 0.25 mm | - | 264 W/m² | - |
| 1787670324 | 18.33° C | 76% | 850 hPa | 0.25 mm | - | 338 W/m² | - |
| 1787669725 | 18.33° C | 72% | 849.9 hPa | 0 mm | - | 213 W/m² | - |
| 1787668898 | 18.33° C | 69% | 849.9 hPa | 0 mm | - | 125 W/m² | - |
| 1787668525 | 18.33° C | 69% | 849.8 hPa | 0 mm | - | 139 W/m² | - |
| 1787667924 | 18.89° C | 68% | 849.8 hPa | 0 mm | - | 132 W/m² | - |
| 1787667098 | 19.44° C | 65% | 849.6 hPa | 0 mm | - | 176 W/m² | - |
| 1787666725 | 20.56° C | 63% | 849.6 hPa | 0 mm | - | 205 W/m² | - |
| 1787666125 | 20.56° C | 60% | 849.6 hPa | 0 mm | - | 279 W/m² | - |
| 1787665298 | 20.56° C | 59% | 849.5 hPa | 0 mm | - | 550 W/m² | - |
| 1787664925 | 21.67° C | 62% | 849.7 hPa | 0 mm | - | 631 W/m² | - |
| 1787664325 | 20.56° C | 60% | 849.5 hPa | 0 mm | - | 315 W/m² | - |
| 1787663498 | 20.56° C | 59% | 849.6 hPa | 0 mm | - | 271 W/m² | - |
| 1787663125 | 20.56° C | 58% | 849.6 hPa | 0 mm | - | 411 W/m² | - |
| 1787654497 | 17.78° C | 77% | 849.7 hPa | 0 mm | - | 410 W/m² | - |
| 1787654116 | 17.22° C | 78% | 849.6 hPa | 0.25 mm | - | 656 W/m² | - |
| 1787652322 | 16.11° C | 84% | 849.7 hPa | 0.25 mm | - | 410 W/m² | - |
| 1787651723 | 16.11° C | 84% | 849.7 hPa | 0.25 mm | - | 472 W/m² | - |
| 1787650897 | 15.56° C | 87% | 849.7 hPa | 0.25 mm | - | 431 W/m² | - |
| 1787650524 | 15.56° C | 89% | 849.7 hPa | 0.25 mm | - | 355 W/m² | - |
| 1787649924 | 15° C | 88% | 849.6 hPa | 0.25 mm | - | 260 W/m² | - |
| 1787649096 | 15.56° C | 89% | 849.8 hPa | 0.51 mm | - | 403 W/m² | - |
| 1787648724 | 15° C | 89% | 849.7 hPa | 1.02 mm | - | 519 W/m² | - |
| 1787648124 | 15° C | 92% | 849.8 hPa | 1.02 mm | - | 396 W/m² | - |
* Rain latest hour (hover to see other rain measurements)
** Current wind speed in m/s (hover to see current wind gust speed)